GW4420 Weather Reports


time (UTC)temp
C
wind
direction
speed
KPH
gust
KPH
rain 1hr
cm
rain 24hr
cm
rain mn
cm
humidity
%
barometer
mb
20260831092547 28 27 9.7 11.3 0.00 0.03 0.03 82 1008.4
20260831092042 28 20 6.4 24.1 0.00 0.03 0.03 82 1008.4
20260831091536 28 28 11.3 24.1 0.00 0.03 0.03 82 1008.4
20260831091032 28 8 8.0 24.1 0.00 0.03 0.03 82 1008.3
20260831090527 28 26 8.0 14.5 0.00 0.03 0.03 82 1008.2
20260831090023 28 17 6.4 16.1 0.00 0.03 0.03 82 1008.1
20260831085518 28 16 12.9 24.1 0.00 0.03 0.03 81 1008.2
20260831085013 28 286 14.5 24.1 0.00 0.03 0.03 81 1008.0
20260831084509 29 2 6.4 11.3 0.00 0.03 0.03 81 1008.1
20260831084005 29 5 8.0 17.7 0.00 0.03 0.03 81 1008.0
20260831083505 29 335 3.2 20.9 0.00 0.03 0.03 81 1008.0
20260831083000 29 47 4.8 17.7 0.00 0.03 0.03 80 1008.0
20260831082459 29 352 14.5 20.9 0.00 0.03 0.03 80 1008.0
20260831081954 29 42 9.7 24.1 0.00 0.03 0.03 80 1007.9
20260831081450 29 44 11.3 17.7 0.00 0.03 0.03 80 1008.1
20260831080946 29 81 8.0 14.5 0.00 0.03 0.03 80 1007.8
20260831080440 29 49 4.8 6.4 0.00 0.03 0.03 81 1008.2
20260831075936 29 25 12.9 22.5 0.00 0.03 0.03 80 1008.0
20260831075431 29 42 4.8 12.9 0.00 0.03 0.03 81 1008.0
20260831074927 29 50 6.4 12.9 0.00 0.03 0.03 82 1008.1
20260831074426 29 40 11.3 12.9 0.00 0.03 0.03 82 1007.8
20260831073916 29 12 9.7 12.9 0.00 0.03 0.03 83 1007.7
20260831073415 29 0 11.3 17.7 0.00 0.03 0.03 84 1007.9
20260831072910 28 4 9.7 12.9 0.00 0.03 0.03 84 1008.0
20260831072405 30 48 4.8 6.4 0.00 0.03 0.03 81 1008.0
20260831071902 30 50 6.4 11.3 0.00 0.03 0.03 80 1007.8
20260831071401 30 36 9.7 16.1 0.00 0.03 0.03 80 1007.9
20260831070900 30 5 14.5 22.5 0.00 0.03 0.03 79 1007.9
20260831070359 30 340 3.2 4.8 0.00 0.03 0.03 79 1008.0
20260831065859 30 36 4.8 9.7 0.00 0.03 0.03 79 1008.1
20260831065357 30 352 9.7 14.5 0.00 0.03 0.03 78 1008.2
20260831064852 30 32 8.0 11.3 0.00 0.03 0.03 80 1008.0
20260831064347 30 20 4.8 9.7 0.00 0.03 0.03 80 1008.1
20260831063843 30 26 1.6 4.8 0.00 0.03 0.03 79 1008.3
20260831063338 30 45 1.6 6.4 0.00 0.03 0.03 80 1008.4
20260831062832 30 301 6.4 24.1 0.00 0.03 0.03 80 1008.2
20260831062328 30 338 11.3 17.7 0.00 0.03 0.03 80 1008.3
20260831061826 30 299 12.9 22.5 0.00 0.03 0.03 80 1008.3
20260831061326 30 37 8.0 12.9 0.00 0.03 0.03 80 1008.3
20260831060822 30 110 1.6 4.8 0.00 0.03 0.03 80 1008.4
20260831060321 30 282 4.8 16.1 0.00 0.03 0.03 80 1008.7
20260831055816 30 6 3.2 14.5 0.00 0.03 0.03 80 1008.5
20260831055311 30 330 6.4 22.5 0.00 0.03 0.03 79 1008.6
20260831054807 30 306 14.5 24.1 0.00 0.03 0.03 78 1008.5
20260831054301 30 349 17.7 37.0 0.00 0.03 0.03 77 1008.6
20260831053800 30 14 4.8 12.9 0.00 0.03 0.03 79 1008.6
20260831053259 30 356 8.0 16.1 0.00 0.03 0.03 79 1008.8
20260831052753 30 334 9.7 16.1 0.00 0.03 0.03 78 1008.7
20260831052252 30 236 11.3 14.5 0.00 0.03 0.03 79 1008.6
20260831051750 30 65 3.2 12.9 0.00 0.03 0.03 80 1008.8
20260831051249 30 15 11.3 29.0 0.00 0.03 0.03 80 1008.5
20260831050744 30 5 6.4 12.9 0.00 0.03 0.03 80 1008.7
20260831050243 30 44 9.7 12.9 0.00 0.03 0.03 82 1008.8
20260831045739 29 45 4.8 11.3 0.00 0.03 0.03 84 1008.8
20260831045238 29 2 9.7 12.9 0.00 0.03 0.03 82 1008.9
20260831044733 30 4 4.8 9.7 0.00 0.03 0.03 82 1008.8
20260831044228 29 11 12.9 12.9 0.00 0.03 0.03 83 1009.1
20260831043724 29 330 9.7 12.9 0.00 0.03 0.03 83 1009.1
20260831043219 29 353 4.8 14.5 0.00 0.03 0.03 85 1009.0
20260831042718 28 20 6.4 9.7 0.00 0.03 0.03 84 1009.0
20260831042213 30 307 16.1 20.9 0.00 0.03 0.03 79 1009.1
20260831041708 30 35 6.4 12.9 0.00 0.03 0.03 79 1009.1
20260831041208 30 46 6.4 16.1 0.00 0.03 0.03 80 1009.4
20260831040703 30 351 6.4 9.7 0.00 0.03 0.03 80 1009.2
20260831040202 30 0 12.9 16.1 0.00 0.03 0.03 79 1009.4
20260831035701 30 40 12.9 20.9 0.00 0.03 0.03 80 1009.3
20260831035155 30 50 3.2 17.7 0.00 0.03 0.03 81 1009.5
20260831034654 30 81 9.7 14.5 0.00 0.03 0.03 82 1009.6
20260831034149 30 8 9.7 14.5 0.00 0.03 0.03 83 1009.6
20260831033645 29 339 6.4 12.9 0.00 0.03 0.03 86 1009.7
20260831033140 29 305 16.1 22.5 0.00 0.03 0.03 85 1009.8
20260831032640 28 107 3.2 12.9 0.18 0.03 0.03 86 1009.7
20260831032136 29 35 4.8 14.5 0.18 0.03 0.03 82 1009.8
20260831031636 30 33 6.4 12.9 0.00 0.00 0.00 81 1009.9
20260831031135 29 2 3.2 4.8 0.00 0.00 0.00 84 1009.7
20260831030634 28 82 3.2 9.7 0.00 0.00 0.00 85 1010.0
20260831030133 28 46 4.8 17.7 0.00 0.00 0.00 85 1010.0
20260831025632 29 340 6.4 20.9 0.00 0.00 0.00 82 1010.0
20260831025127 29 41 3.2 4.8 0.00 0.00 0.00 82 1010.1
20260831024624 29 33 8.0 11.3 0.00 0.00 0.00 79 1010.2
20260831024122 29 33 8.0 11.3 0.00 0.00 0.00 79 1010.2
20260831023620 29 33 8.0 11.3 0.00 0.00 0.00 79 1010.2
20260831023114 29 33 8.0 11.3 0.00 0.00 0.00 79 1010.2
20260831022614 29 345 4.8 9.7 0.00 0.00 0.00 78 1010.3
20260831022109 29 345 4.8 9.7 0.00 0.00 0.00 78 1010.3
20260831021608 29 345 4.8 9.7 0.00 0.00 0.00 78 1010.3
20260831021104 29 19 9.7 12.9 0.00 0.00 0.00 78 1010.2
20260831020600 29 21 9.7 17.7 0.00 0.00 0.00 78 1010.2
20260831020054 29 1 3.2 4.8 0.00 0.00 0.00 78 1010.3
20260831015550 30 321 11.3 14.5 0.00 0.00 0.00 77 1010.2
20260831015044 29 31 6.4 6.4 0.00 0.00 0.00 78 1010.3
20260831014540 29 31 6.4 6.4 0.00 0.00 0.00 78 1010.5
20260831014035 29 326 11.3 17.7 0.00 0.00 0.00 77 1010.4
20260831013531 30 13 8.0 11.3 0.00 0.00 0.00 76 1010.3
20260831013025 30 42 6.4 6.4 0.00 0.00 0.00 77 1010.5
20260831012520 30 355 6.4 6.4 0.00 0.00 0.00 76 1010.4
20260831012015 29 97 1.6 4.8 0.00 0.00 0.00 77 1010.2
20260831011514 29 40 3.2 6.4 0.00 0.00 0.00 78 1010.3
20260831011010 29 39 3.2 3.2 0.00 0.00 0.00 78 1010.0
20260831010510 29 63 3.2 6.4 0.00 0.00 0.00 77 1010.3
20260831010007 29 79 0.0 6.4 0.00 0.00 0.00 76 1010.3
20260831005502 30 26 4.8 12.9 0.00 0.00 0.00 76 1010.2
20260831005001 30 320 3.2 14.5 0.00 0.00 0.00 75 1010.3
20260831004458 30 358 4.8 17.7 0.00 0.00 0.00 74 1010.3
20260831003953 30 16 4.8 6.4 0.00 0.00 0.00 76 1010.1
20260831003449 29 10 6.4 14.5 0.00 0.00 0.00 78 1010.2
20260831002948 29 34 8.0 12.9 0.00 0.00 0.00 78 1010.3
20260831002448 29 71 1.6 9.7 0.00 0.00 0.00 78 1010.3
20260831001943 29 3 4.8 6.4 0.00 0.00 0.00 77 1010.4
20260831001438 29 13 9.7 24.1 0.00 0.00 0.00 76 1010.2
20260831000936 29 19 3.2 6.4 0.00 0.00 0.00 77 1010.2
20260831000432 29 16 9.7 14.5 0.00 0.00 0.00 77 1010.0
20260830235929 29 27 4.8 11.3 0.00 0.00 0.00 78 1010.1
20260830235424 29 59 3.2 11.3 0.00 0.00 0.00 77 1010.0
20260830234920 29 212 3.2 4.8 0.00 0.00 0.00 78 1010.2
20260830234415 28 333 1.6 6.4 0.00 0.00 0.00 79 1010.0
20260830233911 28 10 4.8 6.4 0.00 0.00 0.00 79 1010.1
20260830233406 28 42 11.3 22.5 0.00 0.00 0.00 78 1010.1
20260830232902 28 55 1.6 11.3 0.00 0.00 0.00 78 1010.1
20260830232357 29 34 6.4 11.3 0.00 0.00 0.00 78 1010.1
20260830231854 28 71 3.2 20.9 0.00 0.00 0.00 79 1010.2
20260830231349 28 31 6.4 11.3 0.00 0.00 0.00 79 1010.0
20260830230848 28 23 3.2 9.7 0.00 0.00 0.00 80 1010.1
20260830230343 28 53 3.2 9.7 0.00 0.00 0.00 80 1009.8
20260830225842 28 63 3.2 9.7 0.00 0.00 0.00 81 1009.7
20260830225337 28 12 8.0 11.3 0.00 0.00 0.00 80 1009.9
20260830224832 28 5 4.8 9.7 0.00 0.00 0.00 81 1009.7
20260830224326 28 43 6.4 11.3 0.00 0.00 0.00 81 1009.9
20260830223823 28 320 3.2 12.9 0.00 0.00 0.00 80 1009.7
20260830223319 28 335 4.8 14.5 0.00 0.00 0.00 80 1009.8
20260830222813 27 88 1.6 4.8 0.00 0.00 0.00 81 1009.8
20260830222309 27 49 1.6 3.2 0.00 0.00 0.00 81 1009.7
20260830221804 27 19 3.2 14.5 0.00 0.00 0.00 80 1009.6
20260830221301 28 43 6.4 9.7 0.00 0.00 0.00 80 1009.9
20260830220756 28 282 4.8 14.5 0.00 0.00 0.00 80 1009.8
20260830220255 28 51 3.2 4.8 0.00 0.00 0.00 80 1009.7
20260830215753 28 27 3.2 4.8 0.00 0.00 0.00 81 1009.9
20260830215248 27 35 3.2 3.2 0.00 0.00 0.00 82 1009.9
20260830214743 27 29 4.8 6.4 0.00 0.00 0.00 83 1009.9
20260830214243 27 31 3.2 6.4 0.00 0.00 0.00 83 1009.7
20260830213742 27 67 0.0 1.6 0.00 0.00 0.00 84 1009.8
20260830213238 27 71 0.0 4.8 0.00 0.00 0.00 84 1009.6
20260830212734 27 62 1.6 3.2 0.00 0.00 0.00 84 1009.8
20260830212230 27 90 0.0 3.2 0.00 0.00 0.00 84 1009.7
20260830211729 27 19 3.2 4.8 0.00 0.00 0.00 84 1009.7
20260830211228 27 47 3.2 12.9 0.00 0.00 0.00 83 1009.5
20260830210724 27 52 3.2 11.3 0.00 0.00 0.00 84 1009.5
20260830210223 27 46 3.2 4.8 0.00 0.00 0.00 84 1009.7
20260830205720 27 53 3.2 3.2 0.00 0.00 0.00 84 1009.7
20260830205216 27 55 1.6 4.8 0.00 0.00 0.00 84 1009.7
20260830204716 27 86 1.6 3.2 0.00 0.00 0.00 84 1009.7
20260830204214 27 44 3.2 6.4 0.00 0.00 0.00 84 1009.8
20260830203711 27 56 1.6 3.2 0.00 0.00 0.00 84 1009.6
20260830203206 27 294 3.2 6.4 0.00 0.00 0.00 84 1009.8
20260830202700 27 90 0.0 1.6 0.00 0.00 0.00 84 1009.5
20260830202155 27 23 3.2 4.8 0.00 0.00 0.00 84 1009.7
20260830201654 27 70 3.2 4.8 0.00 0.00 0.00 84 1009.6
20260830201150 27 59 1.6 6.4 0.00 0.00 0.00 84 1009.6
20260830200645 27 90 4.8 6.4 0.00 0.00 0.00 84 1009.7
20260830200144 27 38 1.6 3.2 0.00 0.00 0.00 84 1009.6
20260830195640 27 25 3.2 6.4 0.00 0.00 0.00 84 1009.7
20260830195138 27 53 3.2 9.7 0.00 0.00 0.00 84 1009.9
20260830194637 27 24 3.2 9.7 0.00 0.00 0.00 84 1009.9
20260830194137 27 105 3.2 6.4 0.00 0.00 0.00 84 1009.9
20260830193632 27 53 1.6 3.2 0.00 0.00 0.00 84 1009.7
20260830193127 27 26 3.2 6.4 0.00 0.00 0.00 84 1009.7
20260830192623 27 6 1.6 6.4 0.00 0.00 0.00 84 1009.6
20260830192122 27 20 3.2 4.8 0.00 0.00 0.00 84 1009.6
20260830191618 27 340 1.6 3.2 0.00 0.00 0.00 84 1009.5
20260830191114 27 64 3.2 4.8 0.00 0.00 0.00 84 1009.6
20260830190609 27 24 4.8 6.4 0.00 0.00 0.00 84 1009.6
20260830190104 27 79 3.2 11.3 0.00 0.00 0.00 84 1009.5
20260830185602 27 24 4.8 12.9 0.00 0.00 0.00 84 1009.5
20260830185059 27 74 1.6 6.4 0.00 0.00 0.00 84 1009.1
20260830184557 27 41 3.2 4.8 0.00 0.00 0.00 84 1009.2
20260830184052 27 43 1.6 4.8 0.00 0.00 0.00 83 1009.4
20260830183546 27 79 3.2 6.4 0.00 0.00 0.00 83 1009.3
20260830183042 27 48 3.2 6.4 0.00 0.00 0.00 83 1009.4
20260830182532 27 340 3.2 11.3 0.00 0.00 0.00 83 1009.5
20260830182028 27 57 0.0 4.8 0.00 0.00 0.00 83 1009.4
20260830181524 27 32 4.8 6.4 0.00 0.00 0.00 83 1009.7
20260830181023 27 45 3.2 4.8 0.00 0.00 0.00 83 1009.8
20260830180517 27 60 3.2 11.3 0.00 0.00 0.00 83 1009.7
20260830180016 27 67 3.2 3.2 0.00 0.00 0.00 82 1009.8
20260830175511 27 29 3.2 4.8 0.00 0.00 0.00 82 1009.7
20260830175006 27 28 4.8 6.4 0.00 0.00 0.00 83 1009.6
20260830174501 27 74 1.6 4.8 0.00 0.00 0.00 83 1009.7
20260830173956 27 92 0.0 6.4 0.00 0.00 0.00 83 1009.6
20260830173452 27 42 3.2 6.4 0.00 0.00 0.00 83 1009.7
20260830172947 27 42 4.8 9.7 0.00 0.00 0.00 83 1009.8
20260830172443 27 99 1.6 9.7 0.00 0.00 0.00 83 1009.7
20260830171939 27 22 3.2 9.7 0.00 0.00 0.00 82 1009.9
20260830171434 27 351 3.2 4.8 0.00 0.00 0.00 82 1010.0
20260830170929 27 65 1.6 11.3 0.00 0.00 0.00 82 1010.1
20260830170428 27 22 6.4 9.7 0.00 0.00 0.00 82 1010.3
20260830165926 27 320 3.2 11.3 0.00 0.00 0.00 82 1010.2
20260830165423 27 86 0.0 4.8 0.00 0.00 0.00 82 1010.3
20260830164919 27 44 3.2 11.3 0.00 0.00 0.00 82 1010.3
20260830164414 27 16 6.4 12.9 0.00 0.00 0.00 82 1010.4
20260830163910 27 17 8.0 11.3 0.00 0.00 0.00 82 1010.5
20260830163406 27 31 8.0 11.3 0.00 0.00 0.00 82 1010.7
20260830162900 27 34 4.8 9.7 0.00 0.00 0.00 82 1010.7
20260830162356 27 29 6.4 12.9 0.00 0.00 0.00 82 1010.7
20260830161851 27 50 9.7 12.9 0.00 0.00 0.00 82 1010.5
20260830161351 27 11 1.6 3.2 0.00 0.00 0.00 83 1010.8
20260830160846 27 37 3.2 9.7 0.00 0.00 0.00 82 1010.8
20260830160342 27 49 1.6 6.4 0.00 0.00 0.00 82 1010.7
20260830155837 27 14 3.2 11.3 0.00 0.00 0.00 82 1010.6
20260830155334 27 96 0.0 1.6 0.00 0.00 0.00 82 1010.9
20260830154834 27 13 8.0 11.3 0.00 0.00 0.00 82 1010.9
20260830154330 27 46 3.2 6.4 0.00 0.00 0.00 83 1011.0
20260830153826 27 100 0.0 4.8 0.00 0.00 0.00 83 1010.8
20260830153321 27 34 3.2 4.8 0.00 0.00 0.00 83 1011.0
20260830152820 27 341 3.2 12.9 0.00 0.00 0.00 83 1011.2
20260830152315 27 332 1.6 3.2 0.00 0.00 0.00 84 1011.3
20260830151814 27 65 1.6 3.2 0.00 0.00 0.00 84 1011.2
20260830151314 27 69 3.2 6.4 0.00 0.00 0.00 84 1011.0
20260830150810 27 30 3.2 12.9 0.00 0.00 0.00 84 1011.2
20260830150309 27 50 0.0 6.4 0.00 0.00 0.00 84 1011.1
20260830145809 27 18 6.4 9.7 0.00 0.15 0.15 84 1011.1
20260830145306 27 43 0.0 6.4 0.00 0.15 0.15 84 1011.2
20260830144759 27 18 4.8 11.3 0.00 0.15 0.15 84 1011.2
20260830144255 27 35 6.4 11.3 0.00 0.15 0.15 84 1011.0
20260830143751 27 57 1.6 11.3 0.00 0.15 0.15 84 1011.2
20260830143249 27 32 4.8 11.3 0.00 0.15 0.15 84 1011.2
20260830142744 27 56 4.8 11.3 0.00 0.15 0.15 85 1011.4
20260830142239 27 66 3.2 9.7 0.00 0.15 0.15 85 1011.4
20260830141735 27 357 6.4 6.4 0.00 0.15 0.15 85 1011.3
20260830141230 27 45 3.2 4.8 0.00 0.15 0.15 85 1011.4
20260830140724 27 4 4.8 9.7 0.00 0.15 0.15 84 1011.2
20260830140220 27 47 6.4 9.7 0.00 0.15 0.15 84 1011.3
20260830135714 27 95 3.2 4.8 0.00 0.15 0.15 84 1011.4
20260830135204 27 338 4.8 11.3 0.00 0.15 0.15 84 1011.3
20260830134700 27 34 9.7 14.5 0.00 0.15 0.15 84 1011.3
20260830134154 27 40 6.4 11.3 0.00 0.15 0.15 84 1011.3
20260830133645 27 75 3.2 9.7 0.00 0.15 0.15 84 1011.3
20260830133140 27 248 4.8 6.4 0.00 0.15 0.15 85 1011.5
20260830132636 27 48 8.0 12.9 0.00 0.15 0.15 84 1011.4
20260830132131 27 51 6.4 6.4 0.00 0.15 0.15 84 1011.4
20260830131630 27 65 4.8 9.7 0.00 0.15 0.15 84 1011.4
20260830131124 27 91 3.2 11.3 0.00 0.15 0.15 84 1011.5
20260830130620 27 11 4.8 9.7 0.00 0.15 0.15 84 1011.5
20260830130115 27 8 4.8 9.7 0.00 0.15 0.15 84 1011.4
20260830125614 27 50 3.2 9.7 0.00 0.15 0.15 83 1011.3
20260830125114 27 61 3.2 12.9 0.00 0.15 0.15 83 1011.2
20260830124613 27 62 8.0 11.3 0.00 0.15 0.15 83 1011.2
20260830124108 27 42 6.4 11.3 0.00 0.15 0.15 83 1011.2
20260830123605 27 51 4.8 9.7 0.00 0.15 0.15 83 1011.3
20260830123101 27 39 8.0 12.9 0.00 0.15 0.15 83 1011.2
20260830122557 27 37 6.4 9.7 0.00 0.15 0.15 84 1011.1
20260830122053 27 59 8.0 12.9 0.00 0.15 0.15 84 1011.3
20260830121548 27 26 8.0 11.3 0.00 0.15 0.15 84 1011.2
20260830121048 28 27 3.2 4.8 0.00 0.15 0.15 84 1011.4
20260830120543 28 14 1.6 14.5 0.00 0.15 0.15 84 1011.2
20260830120040 28 49 4.8 11.3 0.00 0.15 0.15 84 1011.1
20260830115535 28 48 3.2 4.8 0.00 0.15 0.15 83 1011.0
20260830115031 27 78 6.4 11.3 0.00 0.15 0.15 83 1010.9
20260830114528 27 43 4.8 6.4 0.00 0.15 0.15 83 1010.8
20260830114027 27 41 4.8 6.4 0.00 0.15 0.15 83 1010.9
20260830113522 27 94 4.8 9.7 0.00 0.15 0.15 83 1010.8
20260830113017 27 23 9.7 17.7 0.00 0.15 0.15 83 1010.6
20260830112513 28 72 1.6 3.2 0.00 0.15 0.15 83 1010.7
20260830112009 28 44 6.4 11.3 0.00 0.15 0.15 83 1010.8
20260830111505 28 50 3.2 9.7 0.00 0.15 0.15 83 1010.9
20260830111000 27 102 4.8 9.7 0.00 0.15 0.15 83 1010.7
20260830110455 27 28 4.8 9.7 0.00 0.15 0.15 83 1010.6
20260830105954 27 18 1.6 14.5 0.00 0.15 0.15 83 1010.6
20260830105451 27 80 1.6 6.4 0.00 0.15 0.15 83 1010.5
20260830104947 28 3 3.2 6.4 0.00 0.15 0.15 83 1010.6
20260830104443 28 78 1.6 4.8 0.00 0.15 0.15 82 1010.3
20260830103938 27 67 3.2 9.7 0.00 0.15 0.15 82 1010.3
20260830103434 28 68 4.8 6.4 0.00 0.15 0.15 83 1010.2
20260830102931 28 34 4.8 9.7 0.00 0.15 0.15 83 1010.4
20260830102427 28 4 8.0 12.9 0.00 0.15 0.15 82 1010.4
20260830101924 28 30 4.8 9.7 0.00 0.15 0.15 82 1010.4
20260830101419 28 67 3.2 9.7 0.00 0.15 0.15 82 1010.6
20260830100918 28 47 3.2 9.7 0.00 0.15 0.15 82 1010.5
20260830100417 28 43 4.8 11.3 0.00 0.15 0.15 82 1010.8
20260830095915 28 328 6.4 12.9 0.00 0.15 0.15 82 1010.5
20260830095412 28 22 4.8 17.7 0.00 0.15 0.15 82 1010.6
20260830094908 28 7 11.3 20.9 0.00 0.15 0.15 83 1010.6
20260830094404 28 37 8.0 11.3 0.00 0.15 0.15 83 1010.6
20260830093859 28 45 8.0 20.9 0.00 0.15 0.15 82 1010.7
20260830093354 28 74 3.2 4.8 0.00 0.15 0.15 82 1010.5
20260830092849 28 1 6.4 12.9 0.00 0.15 0.15 82 1010.9